User: anonymous   Login
Location: Unspecified
(0.0000°N, 0.0000°E)
Time: 20:11:18
(UTC+00:00)
Language:

USA 250 - Orbit

View from above orbital plane
View from above orbital plane
View from above satellite
View from above satellite

Ground track
Ground track

The orbit data is extracted from the following two-line orbital elements,

1 39652U 14020A   19035.32632787 0.00000000  00000-0  00000-0 0    01
2 39652   1.8712 333.7482 0003882 226.4490 133.5287  1.00270000    03
Epoch (UTC): 04 February 2019 07:49:54
Eccentricity: 0.0003882
inclination: 1.8712°
perigee height: 35770 km
apogee height: 35803 km
right ascension of ascending node: 333.7482°
argument of perigee: 226.4490°
revolutions per day: 1.00270000
mean anomaly at epoch: 133.5287°
orbit number at epoch: 0

The dashed part of the orbit path shows where the satellite is in the earth's shadow,  

DLR